Regional Weather Roundup
Issued by NWS

Home | Current Version | Previous Version | Text Only | Print | Product List | Glossary Off
Versions: 1 2 3 4 5 6 7 8 9 10 11 12 13 14 15 16 17 18 19 20 21 22 23 24 25 26 27 28 29 30 31 32 33 34 35 36 37 38 39 40 41 42 43 44 45 46 47 48 49 50

000
ASUS43 KDMX 010007
RWRIA

WEATHER ROUNDUP FOR IOWA
NATIONAL WEATHER SERVICE DES MOINES IA
700 PM CDT TUE JUN 30 2015

NOTE: "FAIR" INDICATES FEW OR NO CLOUDS BELOW 12,000 FEET WITH NO
SIGNIFICANT WEATHER AND/OR OBSTRUCTIONS TO VISIBILITY.

* - THESE STATIONS ARE NOT NWS STATIONS...THUS NOT UNDER NWS
QUALITY CONTROL.  THEY ALSO DO NOT REPORT WEATHER SUCH
AS PRECIPITATION OR FOG.

IAZ001>003-012>014-020>022-031>034-043>046-010100-
   NORTHWEST IOWA

CITY           SKY/WX    TMP DP  RH WIND       PRES   REMARKS
CARROLL *      SUNNY     75  66  73 SE3       29.88F
CHEROKEE *     LGT RAIN  73  70  90 S3        29.88F
DENISON *      MOSUNNY   73  70  88 NE3       29.88S
LE MARS *      LGT RAIN  70  70 100 CALM      29.90F
ORANGE CITY *  CLOUDY    70  66  88 SW6       29.90S
SHELDON *      MOSUNNY   73  73 100 CALM      29.89R
SIOUX CITY     CLOUDY    74  66  76 E5        29.88S
6HR MIN TEMP:  73; 6HR MAX TEMP:  74; 6HR PCP:  0.01;

SPENCER        CLOUDY    74  63  68 E7        29.90S
6HR MIN TEMP:  74; 6HR MAX TEMP:  80;

STORM LAKE *   SUNNY     73  66  78 SE3       29.90S
$$

IAZ055>058-069>071-079>083-090>094-010100-
   SOUTHWEST IOWA

CITY           SKY/WX    TMP DP  RH WIND       PRES   REMARKS
ATLANTIC *     CLOUDY    72  68  88 NE6       29.87F
AUDUBON *      LGT RAIN  75  70  83 CALM      29.90S
CLARINDA *     PTSUNNY   75  70  83 SE3       29.89R
COUNCIL BLFS * MOSUNNY   73  66  78 CALM      29.89R
CRESTON *      PTSUNNY   73  68  83 CALM      29.90F
HARLAN  *      LGT RAIN  72  72 100 NE7       29.92R
LAMONI         CLOUDY    77  69  76 CALM      29.90F
6HR MIN TEMP:  77; 6HR MAX TEMP:  81; 6HR PCP: TRACE;

RED OAK *      CLOUDY    73  66  78 CALM      29.88R
SHENANDOAH *   SUNNY     77  64  65 E5        29.88S
$$

IAZ047>049-059>061-072>074-084-010100-
   CENTRAL IOWA

CITY           SKY/WX    TMP DP  RH WIND       PRES   REMARKS
AMES           CLOUDY    76  65  68 W23G33    29.87F
6HR MIN TEMP:  76; 6HR MAX TEMP:  79;

ANKENY *       SUNNY     77  64  65 CALM      29.88S
CHARITON *     SUNNY     75  68  78 MISG      29.90R
DES MOINES     CLOUDY    78  65  63 W5        29.88F HX  80
6HR MIN TEMP:  78; 6HR MAX TEMP:  82;

GRINNELL*      CLOUDY    73  67  81 CALM      29.89S
KNOXVILLE *    SUNNY     77  66  69 CALM      29.87F
MARSHALLTOWN   CLOUDY    74  68  81 NW3       29.87F
6HR MIN TEMP:  74; 6HR MAX TEMP:  80;

PELLA *        PTSUNNY   76  69  79 CALM      29.89S
PERRY *          N/A     77  63  61 CALM      29.88F
$$

IAZ004>006-015-016-023>025-035-036-010100-
   NORTH CENTRAL IOWA

CITY           SKY/WX    TMP DP  RH WIND       PRES   REMARKS
ALGONA *       SUNNY     72  64  78 NE5       29.91S
CLARION *      SUNNY     73  63  68 N3        29.90S
ESTHERVILLE    CLOUDY    70  62  76 NE5       29.90F
6HR MIN TEMP:  70; 6HR MAX TEMP:  74;

FORT DODGE *   CLOUDY    73  63  68 NE5       29.90S
MASON CITY     PTSUNNY   73  62  68 NE5       29.91S
6HR MIN TEMP:  73; 6HR MAX TEMP:  79;

FOREST CITY *  SUNNY     70  61  73 NW3       29.90R
IOWA FALLS *     N/A     73  64  73 CALM      29.90S
$$

IAZ007>011-017>019-026>030-037>042-050>054-066-010100-
   NORTHEAST IOWA

CITY           SKY/WX    TMP DP  RH WIND       PRES   REMARKS
CEDAR RAPIDS   CLOUDY    77  65  66 N6        29.86S
6HR MIN TEMP:  76; 6HR MAX TEMP:  81;

CHARLES CITY * MOSUNNY   72  63  73 NE7       29.90S
CLINTON *      SUNNY     73  63  68 N7        29.88S
DECORAH *        N/A    N/A N/A N/A MISG        N/A
DUBUQUE        MOSUNNY   72  60  66 NW9       29.88S
6HR MIN TEMP:  72; 6HR MAX TEMP:  77;

MONTICELLO *   SUNNY     73  73 100 N8        29.87S
OELWEIN *        N/A     72  63  73 NE9       29.90R
WATERLOO       PTSUNNY   76  63  64 NE7       29.86F
6HR MIN TEMP:  75; 6HR MAX TEMP:  81;

$$

IAZ064-065-067-068-078-010100-
   EAST CENTRAL IOWA

CITY           SKY/WX    TMP DP  RH WIND       PRES   REMARKS
DAVENPORT      SUNNY     76  64  66 N6        29.86S
6HR MIN TEMP:  76; 6HR MAX TEMP:  81;

IOWA CITY      CLOUDY    78  63  59 N6        29.86S HX  80
6HR MIN TEMP:  78; 6HR MAX TEMP:  82;

MT. PLEASANT * PTSUNNY   79  64  61 W6        29.86F HX  80
MUSCATINE *    SUNNY     79  66  65 CALM      29.85S HX  81
QUAD CITIES    MOSUNNY   79  62  56 NW5       29.84S HX  80
6HR MIN TEMP:  79; 6HR MAX TEMP:  82;

$$

IAZ062-063-075>077-085>089-095>099-010100-
   SOUTHEAST IOWA

CITY           SKY/WX    TMP DP  RH WIND       PRES   REMARKS
BURLINGTON     PTSUNNY   78  70  76 W5        29.85S HX  80
6HR MIN TEMP:  78; 6HR MAX TEMP:  82;

FAIRFIELD *    SUNNY     75  68  78 W3        29.87F
FORT MADISON * SUNNY     75  70  83 W5        29.87S
KEOKUK *       SUNNY     77  70  78 W6        29.86S
OSKALOOSA *      N/A     74  69  83 CALM      29.88S
CENTERVILLE *  SUNNY     75  68  78 N3        29.91S
OTTUMWA        CLOUDY    75  68  78 NW6       29.86S
6HR MIN TEMP:  75; 6HR MAX TEMP:  81;

WASHINGTON *   SUNNY     77  68  73 NW7       29.88S
$$

ABBREVIATIONS USED IN REMARKS
   TC - TEMPERATURES IN CELSIUS
  WCI - WIND CHILL INDEX
   HX - HEAT INDEX
  VSB - VISIBILITY
$$



USA.gov is the U.S. government's official web portal to all federal, state and local government web resources and services.